Погода в Мгле

Россия / Ненецкий автономный округ     66°29′55″N   44°26′57″E
темп.,
°C
ветер,
м/с
пор.,
м/с
влажн.,
%
обл.,
%
осадки,
мм/ч
давл.,
гПа
погр.,
м
22 апреля, чт
чт2200:00+6юв595870 0.0 1009132
03:00+6ююв81263100 0.0 1008297
06:00+4ююв81287100 0.0 1006727
09:00+4ю91390100 0.1 1005752
12:00+3ю81296100 0.3 1005603
15:00+3ю81294100 0.7 1005719
18:00+5ю81179100 0.3 1005748
21:00+3ююз598498 0.5 1006182
23 апреля, пт
пт2300:00+2ю589240 0.1 1006118
03:00+1юз6993100 0.1 1008177
06:00+1юз81298100 0.1 1009432
09:00+2зюз81297100 0.3 1012561
12:00+3з8108381 0.1 1015627
15:00+2зсз568361 0.1 1017272
18:00+3ссв3378100 0.0 1019199
21:00+2всв6879100 0.0 1018150
24 апреля, сб
сб2400:00+3в101579100 0.0 1017263
03:00+4вюв8128668 0.0 1015163
06:00+6ююв8148569 0.0 1014258
09:00+9ю81077100 0.2 1015423
12:00+11ю796675 0.3 1015673
15:00+13ю785987 0.8 1014953
18:00+12ююв796290 0.3 1014671
21:00+9юв697397 0.3 1014119
25 апреля, вс
вс2500:00+7юв711705 0.0 1014170
03:00+5юв610784 0.0 1013129
06:00+6вюв6106996 0.0 1013162
09:00+8вюв7964100 0.0 1012437
12:00+10вюв7853100 0.0 10111012
15:00+10вюв685094 0.0 10101326
18:00+9вюв6960100 0.0 1009645
21:00+7вюв61077100 0.0 1008265
26 апреля, пн
пн2600:00+6в3485100 0.6 1007127
03:00+6всв5880100 0.6 1006123
06:00+5всв5782100 0.0 1005211
09:00+7в6775100 0.0 1004512
12:00+8в6664100 0.1 1003894
15:00+7в6666100 0.3 1002672
18:00+7всв6769100 0.1 1001763
21:00+5всв5787100 0.6 1001588